Terminal Aerodrome Forecast
Issued by NWS

Home | Current Version | Previous Version | Text Only | Print | Product List | Glossary On
Versions: 1 2 3 4 5 6 7 8 9 10 11 12 13 14 15 16 17 18 19 20 21 22 23 24 25 26 27 28 29 30 31 32
000
FTUS41 KBOX 022329
TAFBED
TAF
KBED 022329Z 0300/0324 21007KT P6SM SCT100
     FM030500 21006KT P6SM BKN050
     FM030800 29005KT P6SM BKN030
     FM031000 32006KT P6SM BKN035=

USA.gov is the U.S. government's official web portal to all federal, state and local government web resources and services.